Jefferson City, MO

5:04 AM CST on November 21, 2017 (GMT -0600)
Jefferson City Memorial

Weather History for KJEF - December, 2012

Change the Weather History Date:

Friday, December 28, 2012

  Actual Average Record
Temperature  
Mean Temperature 34 °F -  
Max Temperature 37 °F 39 °F 76 °F (1928)
Min Temperature 30 °F 20 °F -5 °F (1924)
Degree Days  
Heating Degree Days 32    
Moisture  
Dew Point 25 °F    
Average Humidity 70    
Maximum Humidity 75    
Minimum Humidity 65    
Precipitation  
Precipitation 0.00 in - - ()
Sea Level Pressure  
Sea Level Pressure 29.95 in    
Wind  
Wind Speed 5 mph (WNW)    
Max Wind Speed 12 mph    
Max Gust Speed -    
Visibility 9 miles    
Events      
Averages and records for this station are not official NWS values.
T = Trace of Precipitation, MM = Missing Value Source: NWS Daily Summary

Daily Weather History Graph

Daily Weather History Graph

Search for Another Location

Airport or City:

Trip Planner

Search our weather history database for the weather conditions in past years. The results will help you decide how hot, cold, wet, or windy it might be!

Date:

Astronomy

Dec. 28, 2012 Rise Set
Actual Time 7:25 AM CST 4:55 PM CST
Civil Twilight 6:55 AM CST 5:25 PM CST
Nautical Twilight 6:22 AM CST 5:58 PM CST
Astronomical Twilight 5:50 AM CST 6:30 PM CST
Moon 5:31 PM CST (12/28) 7:20 AM CST (12/28)
Length of Visible Light 10h 29m
Length of Day
9h 29m
Full, 100% of the Moon is Illuminated
Dec 28
Full
Jan 4
Last Quarter
Jan 11
New
Jan 18
First Quarter
Jan 26
Full

Hourly Weather History & Observations

Time (CST) Temp. Windchill Dew Point Humidity Pressure Visibility Wind Dir Wind Speed Gust Speed Precip Events Conditions
12:53 AM 32.0 °F 27.5 °F 23.0 °F 69% 30.00 in 10.0 mi SE 4.6 mph - N/A   Scattered Clouds
1:53 AM 30.9 °F 24.3 °F 23.0 °F 72% 29.99 in 10.0 mi ESE 6.9 mph - N/A   Overcast
2:53 AM 32.0 °F 28.7 °F 23.0 °F 69% 30.01 in 10.0 mi ESE 3.5 mph - N/A   Overcast
3:53 AM 33.1 °F 27.7 °F 23.0 °F 66% 29.98 in 10.0 mi SSE 5.8 mph - N/A   Overcast
5:53 AM 33.1 °F 30.0 °F 24.1 °F 70% 29.98 in 10.0 mi South 3.5 mph - N/A   Overcast
6:53 AM 33.1 °F 30.0 °F 25.0 °F 72% 29.98 in 10.0 mi SSE 3.5 mph - N/A   Overcast
7:53 AM 33.1 °F - 25.0 °F 72% 29.98 in 10.0 mi Calm Calm - N/A   Overcast
8:53 AM 34.0 °F - 26.1 °F 73% 29.99 in 9.0 mi Calm Calm - N/A   Overcast
9:53 AM 34.0 °F - 26.1 °F 73% 29.97 in 9.0 mi Calm Calm - N/A   Overcast
10:53 AM 35.1 °F - 27.0 °F 72% 29.97 in 9.0 mi Calm Calm - N/A   Overcast
11:53 AM 36.0 °F - 27.0 °F 70% 29.93 in 9.0 mi Calm Calm - N/A   Overcast
12:53 PM 37.0 °F - 27.0 °F 67% 29.93 in 9.0 mi Calm Calm - N/A   Overcast
1:12 PM 37.4 °F - 26.6 °F 65% 29.93 in 9.0 mi Calm Calm - N/A   Overcast
1:53 PM 37.0 °F 33.3 °F 27.0 °F 67% 29.91 in 9.0 mi NW 4.6 mph - N/A   Overcast
2:53 PM 37.0 °F 31.0 °F 26.1 °F 65% 29.89 in 9.0 mi WNW 8.1 mph - N/A   Overcast
3:12 PM 37.4 °F 32.8 °F 26.6 °F 65% 29.91 in 9.0 mi NW 5.8 mph - N/A   Overcast
3:53 PM 37.0 °F 31.0 °F 26.1 °F 65% 29.90 in 9.0 mi NW 8.1 mph - N/A   Overcast
4:53 PM 36.0 °F 30.3 °F 26.1 °F 67% 29.91 in 10.0 mi NW 6.9 mph - N/A   Overcast
5:53 PM 35.1 °F 29.3 °F 25.0 °F 67% 29.92 in 10.0 mi NW 6.9 mph - N/A   Overcast
6:53 PM 34.0 °F 26.6 °F 26.1 °F 73% 29.93 in 9.0 mi WNW 9.2 mph - N/A   Overcast
7:53 PM 33.1 °F 25.5 °F 25.0 °F 72% 29.94 in 8.0 mi WNW 9.2 mph - N/A   Overcast
8:12 PM 33.8 °F 27.7 °F 24.8 °F 70% 29.96 in 8.0 mi NW 6.9 mph - N/A   Overcast
8:53 PM 33.1 °F 24.9 °F 25.0 °F 72% 29.95 in 8.0 mi WNW 10.4 mph - N/A   Overcast
9:53 PM 32.0 °F 23.0 °F 25.0 °F 75% 29.96 in 7.0 mi WNW 11.5 mph - N/A   Overcast
11:53 PM 30.9 °F 21.7 °F 23.0 °F 72% 29.99 in 7.0 mi WNW 11.5 mph - N/A   Overcast